Back to catalog

STARLINK-11395

AliveCommunicationsVLEO
NORAD 61951·PAYLOAD·🇺🇸 United States

Launched Nov 14, 2024 from Vandenberg Space Force Base

Loading…

Next Passes (next 24 hours)

TLE

FreshSource: CelesTrak SupGP

Epoch: Sep 14, 2026, 21:25 UTC

1 61951C 24209N   26257.89284722 -.00035502  00000+0 -29236-3 0  2571
2 61951  53.1569 158.5002 0001065  98.4923 317.0135 15.69733918    14

Track STARLINK-11395 in real time with AllMySat

Download on the App Store